DateTime,Index
1990062000,0.0
1990062006,0.0
1990062012,0.0
1990062018,0.0
1990062100,0.0
1990062106,1225.0
1990062112,1225.0
1990062118,1225.0
1990062200,1225.0
1990062206,1600.0
1990062212,2025.0
1990062218,2500.0
1990062300,3025.0
1990062306,3600.0
1990062312,4225.0
1990062318,4900.0
1990062400,6400.0
1990062406,7225.0
1990062412,8100.0
1990062418,10000.0
1990062500,12100.0
1990062506,13225.0
1990062512,13225.0
1990062518,12100.0
1990062600,11025.0
1990062606,11025.0
1990062612,10000.0
1990062618,10000.0
1990062700,9025.0
1990062706,7225.0
1990062712,5625.0
1990062718,5625.0
1990062800,6400.0
1990062806,6400.0
1990062812,6400.0
1990062818,6400.0
1990062900,5625.0
1990062906,4900.0
1990062912,3600.0
1990062918,2025.0
1990063000,1225.0
1990063006,0.0
1990063012,0.0
1990063018,0.0
1990070100,0.0
